FW9216 Weather Reports


time (UTC)temp
C
wind
direction
speed
KPH
gust
KPH
rain 1hr
cm
rain 24hr
cm
rain mn
cm
humidity
%
barometer
mb
20260505035605 14 19 0.0 0.0 0.00 0.00 0.00 58 1006.7
20260505034104 16 19 0.0 0.0 0.00 0.00 0.00 55 1006.6
20260505032104 16 352 1.6 3.2 0.00 0.00 0.00 51 1006.3
20260505031605 16 323 0.0 3.2 0.00 0.00 0.00 52 1006.3
20260505030105 17 307 0.0 1.6 0.00 0.00 0.00 50 1006.2
20260505024605 18 107 0.0 1.6 0.00 0.00 0.00 47 1006.0
20260505024104 19 4 0.0 1.6 0.00 0.00 0.00 45 1005.8
20260505023604 20 345 0.0 1.6 0.00 0.00 0.00 44 1005.8
20260505022604 21 134 0.0 1.6 0.00 0.00 0.00 42 1005.8
20260505022105 21 112 0.0 3.2 0.00 0.00 0.00 41 1005.7
20260505020104 22 84 1.6 4.8 0.00 0.00 0.00 36 1005.7
20260505015105 23 61 1.6 4.8 0.00 0.00 0.00 35 1005.6
20260505014604 23 102 1.6 4.8 0.00 0.00 0.00 35 1005.6
20260505013604 24 195 1.6 4.8 0.00 0.00 0.00 34 1005.6
20260505013105 24 107 1.6 4.8 0.00 0.00 0.00 33 1005.7
20260505012105 24 269 0.0 4.8 0.00 0.00 0.00 36 1005.7
20260505011605 24 307 1.6 8.0 0.00 0.00 0.00 32 1005.7
20260505005104 25 147 1.6 14.5 0.00 0.00 0.00 33 1005.8
20260505003604 25 259 1.6 9.7 0.00 0.00 0.00 32 1005.9
20260505002605 25 195 1.6 4.8 0.00 0.00 0.00 32 1005.9
20260505002104 25 293 3.2 8.0 0.00 0.00 0.00 32 1006.0
20260505000104 25 318 3.2 16.1 0.00 0.00 0.00 34 1005.9
20260504235604 25 315 3.2 12.9 0.00 0.00 0.00 32 1005.9
20260504235104 25 287 4.8 12.9 0.00 0.00 0.00 33 1005.9
20260504233104 25 300 3.2 11.3 0.00 0.00 0.00 33 1005.8
20260504232104 25 291 3.2 11.3 0.00 0.00 0.00 35 1005.8
20260504231105 24 267 3.2 12.9 0.00 0.00 0.00 39 1005.9
20260504230605 24 287 4.8 12.9 0.00 0.00 0.00 39 1005.8
20260504230104 25 245 3.2 9.7 0.00 0.00 0.00 39 1005.8
20260504224104 25 294 4.8 9.7 0.00 0.00 0.00 35 1005.8
20260504223604 25 301 1.6 9.7 0.00 0.00 0.00 36 1005.8
20260504222104 25 9 3.2 12.9 0.00 0.00 0.00 38 1006.0
20260504221104 24 281 4.8 19.3 0.00 0.00 0.00 35 1006.1
20260504215104 24 282 4.8 12.9 0.00 0.00 0.00 36 1006.1
20260504214104 24 299 3.2 11.3 0.00 0.00 0.00 38 1006.1
20260504211604 23 301 3.2 4.8 0.00 0.00 0.00 40 1006.3
20260504210104 23 265 3.2 8.0 0.00 0.00 0.00 37 1006.3
20260504205104 23 284 4.8 12.9 0.00 0.00 0.00 38 1006.4
20260504204604 23 257 3.2 14.5 0.00 0.00 0.00 38 1006.5
20260504204104 23 241 6.4 14.5 0.00 0.00 0.00 39 1006.5
20260504203104 23 352 3.2 11.3 0.00 0.00 0.00 35 1006.6
20260504202604 23 267 3.2 11.3 0.00 0.00 0.00 36 1006.6
20260504201604 23 315 8.0 16.1 0.00 0.00 0.00 37 1006.7
20260504201104 23 251 1.6 12.9 0.00 0.00 0.00 36 1006.7
20260504200604 23 283 3.2 12.9 0.00 0.00 0.00 37 1006.7
20260504200104 23 309 3.2 8.0 0.00 0.00 0.00 38 1006.7
20260504195605 23 287 3.2 8.0 0.00 0.00 0.00 39 1006.6
20260504195105 23 288 1.6 9.7 0.00 0.00 0.00 40 1006.7
20260504194604 23 289 3.2 9.7 0.00 0.00 0.00 40 1006.8
20260504194104 23 279 1.6 8.0 0.00 0.00 0.00 37 1006.9
20260504193605 23 268 3.2 11.3 0.00 0.00 0.00 39 1006.8
20260504191604 22 223 4.8 11.3 0.00 0.00 0.00 42 1007.1
20260504185604 22 310 3.2 4.8 0.00 0.00 0.00 44 1007.1
20260504185104 22 268 3.2 4.8 0.00 0.00 0.00 43 1007.1
20260504184605 22 237 1.6 4.8 0.00 0.00 0.00 46 1007.2
20260504184104 22 257 0.0 4.8 0.00 0.00 0.00 45 1007.2
20260504181604 21 175 3.2 8.0 0.00 0.00 0.00 45 1007.2
20260504180104 20 107 3.2 9.7 0.00 0.00 0.00 45 1007.3
20260504174104 20 76 0.0 4.8 0.00 0.00 0.00 46 1007.4
20260504173604 20 58 3.2 4.8 0.00 0.00 0.00 45 1007.4
20260504173104 20 221 0.0 11.3 0.00 0.00 0.00 46 1007.4
20260504172604 20 196 1.6 11.3 0.00 0.00 0.00 46 1007.5
20260504172104 20 127 1.6 4.8 0.00 0.00 0.00 45 1007.4
20260504171604 20 195 0.0 4.8 0.00 0.00 0.00 46 1007.5
20260504150603 15 159 0.0 3.2 0.00 0.00 0.00 62 1007.5
20260504141104 12 144 0.0 1.6 0.00 0.00 0.00 68 1007.7
20260504130604 6 144 0.0 0.0 0.00 0.00 0.00 83 1007.4
20260504110606 6 139 0.0 0.0 0.00 0.00 0.00 83 1007.4
20260504110106 6 139 0.0 0.0 0.00 0.00 0.00 83 1007.5
20260504100606 6 172 0.0 0.0 0.00 0.00 0.00 85 1007.6
20260504100105 5 172 0.0 0.0 0.00 0.00 0.00 85 1007.6
20260504090105 6 172 0.0 0.0 0.00 0.00 0.00 83 1007.5
20260504081605 7 266 0.0 1.6 0.00 0.00 0.00 81 1007.9
20260504080605 7 266 0.0 0.0 0.00 0.00 0.00 82 1008.0
20260504080105 7 266 0.0 0.0 0.00 0.00 0.00 83 1007.9
20260504070106 6 266 0.0 0.0 0.00 0.00 0.00 86 1008.0
20260504050606 9 266 0.0 0.0 0.00 0.00 0.00 78 1008.5
20260504050106 10 266 0.0 0.0 0.00 0.00 0.00 77 1008.5
20260504044105 10 266 0.0 0.0 0.00 0.00 0.00 76 1008.5
20260504043105 11 266 0.0 0.0 0.00 0.00 0.00 73 1008.4
20260504042106 11 266 0.0 0.0 0.00 0.00 0.00 70 1008.4
20260504041105 12 266 0.0 0.0 0.00 0.00 0.00 70 1008.4